TimeAKDT,TemperatureF,Dew PointF,Humidity,Sea Level PressureIn,VisibilityMPH,Wind Direction,Wind SpeedMPH,Gust SpeedMPH,PrecipitationIn,Events,Conditions,WindDirDegrees,DateUTC
12:16 AM,73.4,48.2,41,29.87,10.0,ESE,11.5,-,N/A,,Clear,120,2013-06-19 08:16:00
12:36 AM,73.4,48.2,41,29.87,10.0,East,9.2,-,N/A,,Clear,80,2013-06-19 08:36:00
12:56 AM,71.6,48.2,43,29.87,10.0,ENE,8.1,-,N/A,,Clear,70,2013-06-19 08:56:00
1:16 AM,68.0,46.4,46,29.87,10.0,Calm,Calm,-,N/A,,Clear,0,2013-06-19 09:16:00
1:36 AM,68.0,46.4,46,29.87,10.0,SE,5.8,-,N/A,,Clear,130,2013-06-19 09:36:00
1:56 AM,68.0,44.6,43,29.87,10.0,East,6.9,-,N/A,,Clear,100,2013-06-19 09:56:00
2:16 AM,60.8,51.8,72,29.88,10.0,South,3.5,-,N/A,,Clear,170,2013-06-19 10:16:00
2:36 AM,60.8,53.6,77,29.88,10.0,SSE,3.5,-,N/A,,Clear,150,2013-06-19 10:36:00
2:56 AM,57.2,51.8,82,29.88,10.0,Calm,Calm,-,N/A,,Clear,0,2013-06-19 10:56:00
3:16 AM,55.4,48.2,77,29.88,10.0,Calm,Calm,-,N/A,,Clear,0,2013-06-19 11:16:00
3:36 AM,53.6,48.2,82,29.88,10.0,Calm,Calm,-,N/A,,Clear,0,2013-06-19 11:36:00
3:56 AM,53.6,46.4,77,29.88,10.0,South,4.6,-,N/A,,Clear,180,2013-06-19 11:56:00
4:16 AM,51.8,46.4,82,29.87,10.0,Calm,Calm,-,N/A,,Clear,0,2013-06-19 12:16:00
4:36 AM,51.8,48.2,88,29.86,10.0,SSE,3.5,-,N/A,,Clear,160,2013-06-19 12:36:00
4:56 AM,53.6,50.0,88,29.86,10.0,Calm,Calm,-,N/A,,Clear,0,2013-06-19 12:56:00
5:16 AM,53.6,48.2,82,29.86,10.0,SSE,6.9,-,N/A,,Clear,160,2013-06-19 13:16:00
5:36 AM,53.6,46.4,77,29.86,10.0,SSE,3.5,-,N/A,,Clear,150,2013-06-19 13:36:00
5:56 AM,53.6,46.4,77,29.86,10.0,Calm,Calm,-,N/A,,Clear,0,2013-06-19 13:56:00
6:16 AM,51.8,48.2,88,29.86,10.0,South,4.6,-,N/A,,Clear,180,2013-06-19 14:16:00
6:36 AM,55.4,50.0,82,29.85,10.0,SSE,3.5,-,N/A,,Clear,150,2013-06-19 14:36:00
6:56 AM,55.4,48.2,77,29.85,10.0,Calm,Calm,-,N/A,,Clear,0,2013-06-19 14:56:00
7:16 AM,57.2,48.2,72,29.84,10.0,Calm,Calm,-,N/A,,Clear,0,2013-06-19 15:16:00
7:36 AM,59.0,50.0,72,29.84,10.0,Calm,Calm,-,N/A,,Clear,0,2013-06-19 15:36:00
7:56 AM,60.8,48.2,63,29.84,10.0,Calm,Calm,-,N/A,,Clear,0,2013-06-19 15:56:00
8:16 AM,62.6,51.8,68,29.84,10.0,SSE,4.6,-,N/A,,Clear,160,2013-06-19 16:16:00
8:36 AM,64.4,48.2,56,29.83,10.0,Calm,Calm,-,N/A,,Clear,0,2013-06-19 16:36:00
8:56 AM,69.8,46.4,43,29.83,10.0,South,4.6,-,N/A,,Clear,190,2013-06-19 16:56:00
9:16 AM,69.8,46.4,43,29.83,10.0,South,3.5,-,N/A,,Clear,170,2013-06-19 17:16:00
9:36 AM,71.6,46.4,41,29.83,10.0,SSE,3.5,-,N/A,,Clear,150,2013-06-19 17:36:00
9:56 AM,71.6,46.4,41,29.82,10.0,South,3.5,-,N/A,,Clear,170,2013-06-19 17:56:00
10:16 AM,73.4,48.2,41,29.81,7.0,SSE,3.5,-,N/A,,Clear,160,2013-06-19 18:16:00
10:36 AM,75.2,46.4,36,29.81,10.0,South,4.6,-,N/A,,Clear,190,2013-06-19 18:36:00
10:56 AM,77.0,46.4,34,29.81,10.0,North,4.6,-,N/A,,Clear,360,2013-06-19 18:56:00
11:16 AM,78.8,48.2,34,29.80,10.0,NNW,5.8,-,N/A,,Clear,330,2013-06-19 19:16:00
11:36 AM,80.6,46.4,30,29.80,10.0,Calm,Calm,-,N/A,,Clear,0,2013-06-19 19:36:00
11:56 AM,82.4,46.4,28,29.79,10.0,ESE,8.1,-,N/A,,Clear,120,2013-06-19 19:56:00
12:16 PM,82.4,46.4,28,29.78,10.0,East,11.5,17.3,N/A,,Clear,80,2013-06-19 20:16:00
12:36 PM,84.2,46.4,27,29.78,10.0,East,9.2,-,N/A,,Clear,80,2013-06-19 20:36:00
12:56 PM,84.2,46.4,27,29.77,10.0,East,11.5,18.4,N/A,,Clear,100,2013-06-19 20:56:00
1:16 PM,84.2,46.4,27,29.76,10.0,East,11.5,18.4,N/A,,Clear,80,2013-06-19 21:16:00
1:36 PM,86.0,46.4,25,29.75,10.0,ESE,13.8,19.6,N/A,,Clear,110,2013-06-19 21:36:00
1:56 PM,86.0,44.6,23,29.75,10.0,East,9.2,20.7,N/A,,Clear,100,2013-06-19 21:56:00
2:16 PM,87.8,46.4,24,29.74,10.0,East,15.0,-,N/A,,Clear,80,2013-06-19 22:16:00
2:36 PM,87.8,42.8,21,29.74,10.0,East,13.8,23.0,N/A,,Clear,100,2013-06-19 22:36:00
2:56 PM,87.8,44.6,22,29.73,10.0,East,13.8,21.9,N/A,,Clear,100,2013-06-19 22:56:00
3:16 PM,87.8,44.6,22,29.73,10.0,East,13.8,23.0,N/A,,Clear,80,2013-06-19 23:16:00
3:36 PM,87.8,42.8,21,29.72,10.0,ESE,15.0,25.3,N/A,,Clear,120,2013-06-19 23:36:00
3:56 PM,87.8,44.6,22,29.72,10.0,East,12.7,23.0,N/A,,Clear,100,2013-06-19 23:56:00
4:16 PM,87.8,42.8,21,29.71,10.0,East,12.7,21.9,N/A,,Clear,90,2013-06-20 00:16:00
4:36 PM,89.6,44.6,21,29.70,10.0,ESE,15.0,20.7,N/A,,Clear,110,2013-06-20 00:36:00
4:56 PM,87.8,42.8,21,29.70,10.0,East,11.5,20.7,N/A,,Clear,100,2013-06-20 00:56:00
5:16 PM,89.6,42.8,20,29.69,10.0,East,17.3,-,N/A,,Clear,90,2013-06-20 01:16:00
5:36 PM,89.6,42.8,20,29.69,10.0,East,9.2,21.9,N/A,,Clear,90,2013-06-20 01:36:00
5:56 PM,89.6,42.8,20,29.68,10.0,ESE,13.8,20.7,N/A,,Clear,110,2013-06-20 01:56:00
6:16 PM,89.6,42.8,20,29.68,10.0,East,16.1,24.2,N/A,,Clear,100,2013-06-20 02:16:00
6:36 PM,89.6,44.6,21,29.67,10.0,East,8.1,20.7,N/A,,Clear,100,2013-06-20 02:36:00
6:56 PM,89.6,42.8,20,29.67,10.0,ESE,13.8,20.7,N/A,,Clear,110,2013-06-20 02:56:00
7:16 PM,89.6,41.0,18,29.67,10.0,East,13.8,-,N/A,,Clear,100,2013-06-20 03:16:00
7:36 PM,89.6,42.8,20,29.67,10.0,ESE,16.1,21.9,N/A,,Clear,120,2013-06-20 03:36:00
7:56 PM,89.6,42.8,20,29.67,10.0,East,11.5,16.1,N/A,,Clear,90,2013-06-20 03:56:00